When you browse on this site, cookies collect data to enhance your experience and personalize the content and advertising you see.
Visit our Privacy Policy to learn more. By continuing to use the site, you agree to this use of cookies and data.
  • In Hungary
  • List of Countries
  • For 7 days
  • Water Temperature
  • Satellite Maps
  • Weather Map
  • News
  • Weather Widgets
  • user-avatar
    Login

    Hourly Weather Mieczyn

    Today, 18 November, Sunday

    Time Temperature Precipitation Wind Pressure Humidity
    00:00 -2°C° 0 mm 2 mps 754 mmHg 52%
    01:00 -3°C° 0 mm 2 mps 754 mmHg 54%
    02:00 -1°C° 0 mm 1 mps 753 mmHg 53%
    03:00 -1°C° 0 mm 1 mps 752 mmHg 53%
    04:00 -1°C° 0 mm 1 mps 752 mmHg 53%
    05:00 -1°C° 0 mm 1 mps 751 mmHg 52%
    06:00 -1°C° 0 mm 1 mps 751 mmHg 51%
    07:00 -1°C° 0 mm 1 mps 751 mmHg 49%
    08:00 0°C° 0 mm 1 mps 750 mmHg 44%
    09:00 +1°C° 0 mm 1 mps 750 mmHg 39%
    10:00 +2°C° 0 mm 1 mps 750 mmHg 35%
    11:00 +2°C° 0 mm 2 mps 749 mmHg 35%
    12:00 +2°C° 0 mm 2 mps 748 mmHg 36%
    13:00 -1°C° 0 mm 2 mps 747 mmHg 39%
    14:00 +1°C° 0.1 mm 1 mps 747 mmHg 47%
    15:00 +1°C° 0.1 mm 1 mps 746 mmHg 54%
    16:00 0°C° 0.1 mm 1 mps 746 mmHg 62%
    17:00 0°C° 0.1 mm 1 mps 746 mmHg 67%
    18:00 0°C° 0.1 mm 1 mps 745 mmHg 73%
    19:00 0°C° 0.1 mm 1 mps 745 mmHg 79%
    20:00 0°C° 0.1 mm 1 mps 745 mmHg 82%
    21:00 0°C° 0.1 mm 1 mps 745 mmHg 85%
    22:00 0°C° 0.1 mm 1 mps 745 mmHg 88%
    23:00 -2°C° 0.1 mm 2 mps 744 mmHg 89%

    Tomorrow, 19 November, Monday

    Time Temperature Precipitation Wind Pressure Humidity
    00:00 -1°C° 0.1 mm 2 mps 744 mmHg 90%
    01:00 -1°C° 0.1 mm 3 mps 744 mmHg 91%
    02:00 -1°C° 0.1 mm 3 mps 744 mmHg 91%
    03:00 -1°C° 0.1 mm 3 mps 744 mmHg 91%
    04:00 -1°C° 0.1 mm 3 mps 744 mmHg 90%
    05:00 -2°C° 0 mm 4 mps 744 mmHg 90%
    06:00 -2°C° 0 mm 4 mps 744 mmHg 90%
    07:00 -3°C° 0 mm 4 mps 744 mmHg 89%
    08:00 -2°C° 0 mm 4 mps 744 mmHg 84%
    09:00 -2°C° 0 mm 5 mps 744 mmHg 79%
    10:00 -1°C° 0 mm 5 mps 744 mmHg 73%
    11:00 -1°C° 0 mm 5 mps 744 mmHg 70%
    12:00 0°C° 0 mm 5 mps 744 mmHg 66%
    13:00 -1°C° 0 mm 6 mps 744 mmHg 62%
    14:00 -1°C° 0 mm 5 mps 744 mmHg 65%
    15:00 -1°C° 0 mm 5 mps 744 mmHg 68%
    16:00 -2°C° 0 mm 4 mps 744 mmHg 72%
    17:00 -2°C° 0 mm 5 mps 745 mmHg 73%
    18:00 -2°C° 0 mm 5 mps 745 mmHg 74%
    19:00 -4°C° 0 mm 5 mps 745 mmHg 76%
    20:00 -4°C° 0 mm 5 mps 745 mmHg 76%
    21:00 -4°C° 0 mm 5 mps 745 mmHg 77%
    22:00 -4°C° 0 mm 5 mps 745 mmHg 78%
    23:00 -4°C° 0 mm 5 mps 745 mmHg 77%

    Day after tomorrow, 20 November, Tuesday

    Time Temperature Precipitation Wind Pressure Humidity
    00:00 -4°C° 0 mm 5 mps 745 mmHg 77%
    01:00 -4°C° 0 mm 5 mps 745 mmHg 77%
    02:00 -5°C° 0 mm 5 mps 745 mmHg 77%
    03:00 -5°C° 0 mm 6 mps 745 mmHg 77%
    04:00 -5°C° 0 mm 6 mps 744 mmHg 77%
    05:00 -5°C° 0 mm 6 mps 744 mmHg 78%
    06:00 -5°C° 0 mm 6 mps 744 mmHg 78%
    07:00 -5°C° 0 mm 6 mps 744 mmHg 78%
    08:00 -4°C° 0 mm 6 mps 744 mmHg 74%
    09:00 -3°C° 0 mm 7 mps 744 mmHg 70%
    10:00 -3°C° 0 mm 7 mps 744 mmHg 65%
    11:00 -2°C° 0 mm 7 mps 743 mmHg 63%
    12:00 -1°C° 0 mm 8 mps 743 mmHg 60%
    13:00 -1°C° 0 mm 8 mps 742 mmHg 57%
    14:00 -1°C° 0 mm 7 mps 742 mmHg 60%
    15:00 -2°C° 0 mm 7 mps 742 mmHg 64%
    16:00 -2°C° 0 mm 7 mps 741 mmHg 68%
    17:00 -2°C° 0 mm 7 mps 741 mmHg 69%
    18:00 -3°C° 0 mm 7 mps 741 mmHg 71%
    19:00 -3°C° 0 mm 7 mps 741 mmHg 72%
    20:00 -3°C° 0.2 mm 7 mps 742 mmHg 74%
    21:00 -3°C° 0.2 mm 7 mps 742 mmHg 76%
    22:00 -3°C° 0.2 mm 7 mps 742 mmHg 78%
    23:00 -3°C° 0.3 mm 7 mps 742 mmHg 80%

    21 November, Wednesday

    Time Temperature Precipitation Wind Pressure Humidity
    00:00 -3°C° 0.3 mm 6 mps 742 mmHg 82%
    01:00 -3°C° 0.3 mm 6 mps 742 mmHg 85%
    02:00 -3°C° 0.2 mm 6 mps 742 mmHg 85%
    03:00 -3°C° 0.2 mm 6 mps 742 mmHg 86%
    04:00 -2°C° 0.2 mm 5 mps 742 mmHg 86%
    05:00 -2°C° 0.1 mm 5 mps 743 mmHg 86%
    06:00 -2°C° 0.1 mm 5 mps 743 mmHg 86%
    07:00 -2°C° 0.1 mm 5 mps 743 mmHg 86%
    08:00 -2°C° 0 mm 5 mps 743 mmHg 85%
    09:00 -2°C° 0 mm 5 mps 744 mmHg 85%
    10:00 -2°C° 0 mm 5 mps 744 mmHg 84%
    11:00 -1°C° 0 mm 5 mps 744 mmHg 83%
    12:00 -1°C° 0 mm 5 mps 744 mmHg 82%
    13:00 -1°C° 0 mm 5 mps 744 mmHg 81%
    14:00 -1°C° 0 mm 5 mps 744 mmHg 82%
    15:00 -2°C° 0 mm 5 mps 745 mmHg 82%
    16:00 -2°C° 0 mm 5 mps 745 mmHg 83%
    17:00 -4°C° 0 mm 5 mps 745 mmHg 83%
    18:00 -4°C° 0 mm 5 mps 745 mmHg 83%
    19:00 -4°C° 0 mm 5 mps 745 mmHg 83%
    20:00 -5°C° 0 mm 5 mps 746 mmHg 83%
    21:00 -5°C° 0 mm 5 mps 746 mmHg 83%
    22:00 -4°C° 0 mm 4 mps 746 mmHg 84%
    23:00 -4°C° 0 mm 4 mps 746 mmHg 84%

    22 November, Thursday

    Time Temperature Precipitation Wind Pressure Humidity
    00:00 -4°C° 0 mm 4 mps 746 mmHg 84%
    01:00 -4°C° 0 mm 4 mps 746 mmHg 85%
    02:00 -4°C° 0 mm 4 mps 747 mmHg 85%
    03:00 -4°C° 0 mm 4 mps 747 mmHg 85%
    04:00 -4°C° 0 mm 4 mps 747 mmHg 86%
    05:00 -4°C° 0 mm 4 mps 747 mmHg 86%
    06:00 -4°C° 0 mm 4 mps 747 mmHg 86%
    07:00 -4°C° 0 mm 4 mps 747 mmHg 86%
    08:00 -4°C° 0 mm 4 mps 748 mmHg 83%
    09:00 -3°C° 0 mm 4 mps 748 mmHg 80%
    10:00 -2°C° 0 mm 5 mps 748 mmHg 76%
    11:00 -2°C° 0 mm 4 mps 748 mmHg 74%
    12:00 -1°C° 0 mm 4 mps 748 mmHg 72%
    13:00 0°C° 0 mm 4 mps 748 mmHg 69%
    14:00 -1°C° 0 mm 4 mps 748 mmHg 73%
    15:00 -1°C° 0 mm 3 mps 748 mmHg 76%
    16:00 -2°C° 0 mm 3 mps 748 mmHg 80%
    17:00 -2°C° 0 mm 3 mps 749 mmHg 81%
    18:00 -2°C° 0 mm 3 mps 749 mmHg 81%
    19:00 -4°C° 0 mm 3 mps 749 mmHg 82%
    20:00 -4°C° 0 mm 3 mps 749 mmHg 82%
    21:00 -4°C° 0 mm 3 mps 750 mmHg 83%
    22:00 -4°C° 0 mm 3 mps 750 mmHg 83%
    23:00 -4°C° 0 mm 3 mps 750 mmHg 83%

    23 November, Friday

    Time Temperature Precipitation Wind Pressure Humidity
    00:00 -4°C° 0 mm 3 mps 750 mmHg 83%
    01:00 -4°C° 0 mm 3 mps 750 mmHg 84%
    02:00 -4°C° 0 mm 3 mps 750 mmHg 84%
    03:00 -4°C° 0 mm 3 mps 750 mmHg 84%
    04:00 -5°C° 0 mm 3 mps 750 mmHg 84%
    05:00 -5°C° 0 mm 3 mps 750 mmHg 84%
    06:00 -5°C° 0 mm 3 mps 750 mmHg 84%
    07:00 -5°C° 0 mm 3 mps 750 mmHg 84%
    08:00 -4°C° 0 mm 3 mps 750 mmHg 80%
    09:00 -2°C° 0 mm 3 mps 750 mmHg 76%
    10:00 -1°C° 0 mm 3 mps 750 mmHg 72%
    11:00 0°C° 0 mm 3 mps 750 mmHg 71%
    12:00 +2°C° 0 mm 2 mps 750 mmHg 70%
    13:00 +3°C° 0 mm 2 mps 749 mmHg 69%
    14:00 +2°C° 0 mm 2 mps 749 mmHg 74%
    15:00 +1°C° 0 mm 2 mps 749 mmHg 80%
    16:00 -1°C° 0 mm 2 mps 749 mmHg 85%
    17:00 -1°C° 0 mm 2 mps 748 mmHg 86%
    18:00 -1°C° 0 mm 2 mps 748 mmHg 87%
    19:00 -1°C° 0 mm 2 mps 748 mmHg 89%
    20:00 +1°C° 0 mm 2 mps 747 mmHg 89%
    21:00 +1°C° 0 mm 2 mps 747 mmHg 90%
    22:00 +1°C° 0 mm 2 mps 747 mmHg 90%
    23:00 +1°C° 0 mm 2 mps 747 mmHg 91%
    Show more